[[{"header":{"parameterUnit":"m.s-1","parameterCategory":1,"la1":30.2991,"la2":30.254,"lo1":-89.0895,"lo2":-89.0444,"dy":0.0017,"dx":0.0017,"nx":28,"ny":28,"refTime":"2023-10-10T21:00:00:Z","depth":0,"parameterNumber":2,"parameterNumberName":"U-component_of_WINDS"},"data":[0,0,0,0,0,0,0,0,0,0,0,0,0,0,0,0,0,0,0,0,0,0,0,0,0,0,0,0,0,0,0,0,0,0,0,0,0,0,0,0,0,0,0,0,0,0,0,0,0,0,0,0,0,0,0,0,0,0,-6.0797,-6.0794,0,-6.0448,-6.0444,-6.044,-6.0153,-6.015,-6.0147,-6.0144,-5.9786,-5.978,-5.9773,0,0,0,0,0,0,0,0,0,0,0,0,0,-6.1218,-6.1211,-6.0798,-6.0793,-6.0789,-6.0448,-6.0443,-6.0439,-6.0153,-6.015,-6.0146,-6.0143,-5.9788,-5.978,-5.9772,0,0,0,0,0,0,0,0,0,0,0,0,0,-6.0969,-6.1209,-6.0799,-6.0606,-6.0585,-6.0449,-6.0443,-6.0437,-6.0154,-6.015,-6.0145,-6.0141,-5.9791,-5.9781,-5.9771,-5.9799,0,0,-5.974,-5.9736,0,0,0,0,0,0,0,0,-6.0983,-6.0953,-6.0638,-6.0619,-6.0595,-6.0339,-6.046,-6.0223,-6.0155,-6.0318,-6.0144,-6.0139,-5.9974,-5.9948,-5.9893,-5.9782,-5.9767,-5.9739,-5.9733,-5.9729,-5.9726,0,0,0,0,0,0,0,-6.1001,-6.0967,-6.0659,-6.0634,-6.0608,-6.0536,-6.0496,-6.0414,-6.0175,-6.0303,-6.0281,-6.0244,-5.9961,-5.9903,-5.9882,-5.9761,-5.974,-5.9731,-5.9724,-5.972,-5.9655,-5.966,0,0,0,0,0,0,-6.1048,-6.0983,-6.067,-6.0649,-6.0782,-6.0532,-6.0487,-6.0426,-6.0175,-6.0133,-6.0248,-6.0232,-5.9922,-5.9894,-5.9868,-5.9884,-5.9729,-5.972,-5.9714,-5.9651,-5.9656,-5.9661,0,0,0,0,0,0,-6.1058,-6.1023,-6.0684,-6.081,-6.0761,-6.053,-6.0464,-6.0421,-6.0363,-6.0134,-6.009,-6.0233,-5.9918,-5.9883,-5.9818,-5.9868,-5.9715,-5.9706,-5.9646,-5.9653,-5.9659,-5.9917,0,0,0,0,0,0,-6.1071,-6.1028,-6.1037,-6.0812,-6.0756,-6.0641,-6.0466,-6.0418,-6.0346,-6.0322,-6.0108,-6.0068,-5.9912,-5.9835,-5.9808,-5.9851,-5.9698,-5.9641,-5.9649,-5.9657,-5.9903,-5.9932,-5.9956,0,0,0,0,0,-6.1087,-6.1123,-6.1039,-6.1002,-6.0762,-6.0644,-6.0612,-6.0431,-6.0352,-6.0358,-6.021,-6.0075,-5.9867,-5.9831,-5.9798,-5.9839,-5.9637,-5.9647,-5.9656,-5.9891,-5.9926,-5.9955,0,0,0,0,0,0,-6.136,-6.1091,-6.0993,-6.0958,-6.0827,-6.0596,-6.0599,-6.0474,-6.0362,-6.0344,-6.0124,-6.0078,-6.0038,-5.9931,-5.9896,-5.9852,-5.9734,-5.9738,-5.9924,-5.9955,-5.9981,-6.0008,-5.9689,0,0,0,0,0,-6.1416,-6.1344,-6.1112,-6.1103,-6.1042,-6.0833,-6.0775,-6.0647,-6.0502,-6.0444,-6.0292,-6.0157,-6.006,-6.0001,-5.99,-5.9886,-5.9835,-5.9898,-5.9925,-5.9947,-5.9954,-5.9938,-5.9964,-5.9693,-5.9693,-5.9693,0,0,-6.1531,-6.1375,-6.1342,-6.1154,-6.1036,-6.0966,-6.0788,-6.0721,-6.0666,-6.0434,-6.0364,-6.0248,-6.0081,-6.0043,-6.0018,-5.9953,-6.0017,-5.996,-5.998,-5.9973,-5.9951,-5.9977,-6.0,-5.97,-5.9698,-5.9697,0,0,-6.1704,-6.1579,-6.1558,-6.1444,-6.1269,-6.1129,-6.1125,-6.0913,-6.0827,-6.0753,-6.0577,-6.0509,-6.0348,-6.0237,-6.0159,-6.0291,-6.0162,-6.0264,-6.0403,-6.0391,-6.0412,-6.043,-6.0478,-6.0497,-6.0271,-6.0271,-6.0272,0,-6.187,-6.1757,-6.1563,-6.1507,-6.1429,-6.1215,-6.1192,-6.109,-6.0892,-6.0843,-6.0772,-6.0565,-6.0438,-6.0371,-6.0403,-6.0347,-6.0335,-6.0288,-6.0425,-6.0441,-6.0454,-6.0498,-6.0516,-6.0285,-6.0283,-6.0282,-6.0281,0,-6.1969,-6.1893,-6.1897,-6.1711,-6.1633,-6.1594,-6.1394,-6.1338,-6.1218,-6.1086,-6.1013,-6.0853,-6.0716,-6.069,-6.0571,-6.0606,-6.0571,-6.0466,-6.0342,-6.0497,-6.0534,-6.0549,-6.0305,-6.03,-6.0296,-6.0292,0,0,-6.2305,-6.2012,-6.2017,-6.1929,-6.172,-6.1658,-6.1609,-6.1474,-6.1431,-6.1301,-6.1255,-6.1123,-6.1024,-6.0937,-6.0803,-6.0793,-6.0908,-6.0688,-6.0681,-6.0736,-6.0937,-6.1019,-6.1041,-6.0821,-6.0823,-6.0825,-6.0952,0,-6.2446,-6.2346,-6.217,-6.2127,-6.2055,-6.185,-6.1807,-6.1675,-6.155,-6.1471,-6.1332,-6.1243,-6.1119,-6.1065,-6.1045,-6.0899,-6.0946,-6.0887,-6.0777,-6.0775,-6.0826,-6.106,-6.1145,-6.1272,-6.0965,-6.0967,-6.0968,0,-6.2597,-6.248,-6.243,-6.2226,-6.2189,-6.2154,-6.2016,-6.1942,-6.1787,-6.1697,-6.16,-6.1454,-6.1391,-6.1279,-6.119,-6.1154,-6.1098,-6.1019,-6.102,-6.1003,-6.0883,-6.1051,-6.1308,-6.1329,-6.0989,-6.0987,-6.0986,0,-6.2849,-6.2678,-6.2626,-6.2557,-6.2317,-6.2298,-6.2197,-6.2037,-6.1968,-6.1847,-6.18,-6.1674,-6.1606,-6.1512,-6.1336,-6.127,-6.1267,-6.114,-6.1191,-6.1197,-6.1201,-6.1203,-6.1455,-6.1164,-6.1164,-6.1164,-6.1163,0,-6.3026,-6.3004,-6.2736,-6.2705,-6.2673,-6.247,-6.2445,-6.2325,-6.2185,-6.2126,-6.1941,-6.189,-6.166,-6.1582,-6.1444,-6.1392,-6.1362,-6.1288,-6.1252,-6.1305,-6.1315,-6.1267,-6.1254,-6.1168,-6.1167,-6.1167,-6.1166,0,-6.3303,-6.3122,-6.3052,-6.2831,-6.2774,-6.2762,-6.2571,-6.2533,-6.2397,-6.2325,-6.2296,-6.2084,-6.1982,-6.1797,-6.1644,-6.155,-6.1528,-6.1464,-6.1581,-6.1559,-6.1622,-6.1619,-6.1851,-6.1872,-6.157,-6.1573,-6.1575,0,-6.3428,-6.3406,-6.3182,-6.313,-6.3036,-6.2953,-6.2881,-6.268,-6.2613,-6.2435,-6.2418,-6.2302,-6.2199,-6.2047,-6.1879,-6.1761,-6.1693,-6.1783,-6.1674,-6.1729,-6.1696,-6.17,-6.1697,-6.1808,-6.1813,-6.1816,-6.1819,0,-6.367,-6.3581,-6.3484,-6.3357,-6.3276,-6.3166,-6.3046,-6.3014,-6.2785,-6.2719,-6.2613,-6.2534,-6.2376,-6.2264,-6.2121,-6.2017,-6.1881,-6.1854,-6.186,-6.1915,-6.1984,-6.1949,-6.1649,-6.185,-6.1847,-6.1845,-6.1843,-6.1842,-6.3874,-6.3845,-6.3683,-6.3582,-6.3471,-6.3363,-6.3316,-6.3174,-6.3082,-6.2939,-6.2825,-6.2729,-6.2574,-6.2368,-6.2272,-6.2193,-6.2129,-6.2138,-6.214,-6.2146,-6.2168,-6.1996,-6.2166,-6.2165,-6.2164,-6.2163,-6.2162,0,-6.4107,-6.3992,-6.3901,-6.3739,-6.366,-6.3538,-6.3398,-6.334,-6.3258,-6.3124,-6.3026,-6.2905,-6.2795,-6.2619,-6.2494,-6.2466,-6.2401,-6.244,-6.2441,-6.2419,-6.2231,-6.2239,-6.2495,-6.2495,-6.2495,-6.2495,-6.2495,-6.2495,-6.4219,-6.4164,-6.4057,-6.3945,-6.3829,-6.3733,-6.3665,-6.3564,-6.3457,-6.333,-6.3237,-6.3122,-6.2971,-6.2835,-6.2729,-6.2679,-6.2643,-6.2703,-6.2635,-6.2463,-6.2432,-6.2403,-6.2409,-6.2697,-6.2697,-6.2829,-6.283,-6.2831]},{"header":{"parameterUnit":"m.s-1","parameterCategory":1,"la1":30.2991,"la2":30.254,"lo1":-89.0895,"lo2":-89.0444,"dy":0.0017,"dx":0.0017,"nx":28,"ny":28,"refTime":"2023-10-10T21:00:00:Z","depth":0,"parameterNumber":3,"parameterNumberName":"V-component_of_WINDS"},"data":[0,0,0,0,0,0,0,0,0,0,0,0,0,0,0,0,0,0,0,0,0,0,0,0,0,0,0,0,0,0,0,0,0,0,0,0,0,0,0,0,0,0,0,0,0,0,0,0,0,0,0,0,0,0,0,0,0,0,-4.6617,-4.6616,0,-4.651,-4.6509,-4.6508,-4.642,-4.6419,-4.6418,-4.6417,-4.6307,-4.6305,-4.6303,0,0,0,0,0,0,0,0,0,0,0,0,0,-4.6739,-4.6737,-4.6617,-4.6616,-4.6614,-4.6511,-4.6509,-4.6508,-4.642,-4.6419,-4.6418,-4.6417,-4.6308,-4.6306,-4.6303,0,0,0,0,0,0,0,0,0,0,0,0,0,-4.6665,-4.6737,-4.6617,-4.6558,-4.6552,-4.6511,-4.6509,-4.6507,-4.642,-4.6419,-4.6417,-4.6416,-4.6309,-4.6306,-4.6303,-4.6312,0,0,-4.6293,-4.6292,0,0,0,0,0,0,0,0,-4.6669,-4.666,-4.6568,-4.6562,-4.6555,-4.6477,-4.6512,-4.6442,-4.642,-4.647,-4.6417,-4.6415,-4.6365,-4.6357,-4.634,-4.6307,-4.6302,-4.6293,-4.6291,-4.629,-4.6289,0,0,0,0,0,0,0,-4.6674,-4.6664,-4.6575,-4.6567,-4.6559,-4.6535,-4.6523,-4.6498,-4.6427,-4.6466,-4.6459,-4.6448,-4.6361,-4.6343,-4.6337,-4.63,-4.6293,-4.629,-4.6289,-4.6287,-4.6261,-4.6262,0,0,0,0,0,0,-4.6689,-4.6669,-4.6578,-4.6572,-4.661,-4.6534,-4.652,-4.6503,-4.6427,-4.6414,-4.6449,-4.6444,-4.6349,-4.6341,-4.6333,-4.6334,-4.629,-4.6287,-4.6285,-4.626,-4.6262,-4.6263,0,0,0,0,0,0,-4.6692,-4.6682,-4.6582,-4.6618,-4.6604,-4.6533,-4.6515,-4.6502,-4.6484,-4.6414,-4.64,-4.6444,-4.6348,-4.6337,-4.6316,-4.6329,-4.6286,-4.6283,-4.6259,-4.6261,-4.6262,-4.6339,0,0,0,0,0,0,-4.6696,-4.6683,-4.6688,-4.6619,-4.6602,-4.657,-4.6516,-4.6501,-4.6479,-4.6472,-4.6406,-4.6394,-4.6346,-4.6321,-4.6313,-4.6324,-4.6281,-4.6257,-4.626,-4.6262,-4.6335,-4.6343,-4.635,0,0,0,0,0,-4.6701,-4.6715,-4.6689,-4.6678,-4.6607,-4.6571,-4.6561,-4.6506,-4.6481,-4.6483,-4.6437,-4.6396,-4.6329,-4.632,-4.631,-4.632,-4.6256,-4.6259,-4.6261,-4.6332,-4.6342,-4.635,0,0,0,0,0,0,-4.6789,-4.6705,-4.6675,-4.6668,-4.6627,-4.6556,-4.6558,-4.6519,-4.6484,-4.6478,-4.641,-4.6396,-4.6381,-4.6349,-4.634,-4.6321,-4.6287,-4.6287,-4.6343,-4.6352,-4.636,-4.6368,-4.6278,0,0,0,0,0,-4.6807,-4.6786,-4.6714,-4.6714,-4.6695,-4.663,-4.6612,-4.6572,-4.6527,-4.6509,-4.6462,-4.6419,-4.6386,-4.6368,-4.6335,-4.6329,-4.6311,-4.6331,-4.6338,-4.6345,-4.6346,-4.6334,-4.6341,-4.6271,-4.6271,-4.6271,0,0,-4.6845,-4.6797,-4.6788,-4.6731,-4.6694,-4.6671,-4.6616,-4.6596,-4.6577,-4.6506,-4.6483,-4.6446,-4.6392,-4.6377,-4.6368,-4.6349,-4.6361,-4.6348,-4.6354,-4.6351,-4.6338,-4.6344,-4.635,-4.6273,-4.6273,-4.6272,0,0,-4.6903,-4.6866,-4.686,-4.6823,-4.6767,-4.6723,-4.6721,-4.6655,-4.6627,-4.6602,-4.6546,-4.6522,-4.6471,-4.6433,-4.6407,-4.6443,-4.6403,-4.6435,-4.6474,-4.6464,-4.6469,-4.6473,-4.6482,-4.6487,-4.6436,-4.6436,-4.6436,0,-4.6957,-4.6922,-4.6862,-4.6843,-4.6817,-4.6749,-4.6741,-4.6708,-4.6645,-4.6627,-4.6607,-4.6536,-4.6496,-4.6468,-4.6476,-4.6459,-4.6452,-4.6442,-4.6473,-4.6477,-4.648,-4.6488,-4.6492,-4.644,-4.644,-4.6439,-4.6439,0,-4.6989,-4.6965,-4.6967,-4.6905,-4.688,-4.6867,-4.6801,-4.6782,-4.6743,-4.6699,-4.6671,-4.662,-4.6573,-4.6563,-4.6526,-4.6529,-4.6518,-4.6486,-4.645,-4.6492,-4.6498,-4.6501,-4.6446,-4.6445,-4.6443,-4.6442,0,0,-4.7103,-4.7004,-4.7006,-4.6974,-4.6905,-4.6885,-4.6865,-4.6819,-4.6801,-4.6759,-4.6739,-4.6693,-4.6661,-4.6632,-4.6589,-4.658,-4.6606,-4.6548,-4.6546,-4.6558,-4.66,-4.6623,-4.6628,-4.6578,-4.6578,-4.6579,-4.6603,0,-4.7147,-4.7111,-4.7053,-4.7034,-4.7008,-4.6941,-4.6923,-4.6877,-4.6835,-4.6805,-4.6757,-4.6724,-4.6687,-4.6668,-4.6656,-4.6606,-4.6613,-4.6603,-4.6556,-4.6555,-4.657,-4.6631,-4.6657,-4.6683,-4.6605,-4.6606,-4.6606,0,-4.7195,-4.7154,-4.7133,-4.706,-4.7047,-4.7033,-4.6982,-4.6955,-4.6899,-4.6868,-4.6833,-4.6785,-4.6757,-4.6724,-4.6683,-4.6677,-4.6654,-4.6625,-4.6624,-4.6617,-4.6583,-4.6624,-4.669,-4.6694,-4.661,-4.661,-4.6609,0,-4.7276,-4.7215,-4.7193,-4.7169,-4.7085,-4.7075,-4.704,-4.6983,-4.6956,-4.6911,-4.6892,-4.6845,-4.6818,-4.6781,-4.6719,-4.6702,-4.6683,-4.6646,-4.6654,-4.6655,-4.6653,-4.6654,-4.6715,-4.6641,-4.6641,-4.6641,-4.6641,0,-4.7331,-4.732,-4.7227,-4.7214,-4.7197,-4.7129,-4.7113,-4.7071,-4.702,-4.6994,-4.6933,-4.6909,-4.683,-4.6797,-4.6748,-4.6718,-4.6708,-4.6679,-4.6667,-4.6684,-4.6688,-4.6668,-4.6664,-4.6642,-4.6642,-4.6641,-4.6641,0,-4.7419,-4.7357,-4.7328,-4.7249,-4.7228,-4.722,-4.7151,-4.7133,-4.7085,-4.7052,-4.7041,-4.6965,-4.6921,-4.6856,-4.6794,-4.676,-4.6737,-4.6717,-4.6756,-4.6748,-4.6758,-4.6757,-4.6808,-4.6809,-4.6737,-4.6737,-4.6738,0,-4.7458,-4.7447,-4.7366,-4.7344,-4.731,-4.7277,-4.7248,-4.7178,-4.7151,-4.7083,-4.7072,-4.7023,-4.6981,-4.6914,-4.6852,-4.6801,-4.6778,-4.6799,-4.6771,-4.6787,-4.6775,-4.6776,-4.6772,-4.6806,-4.6807,-4.6808,-4.6809,0,-4.7532,-4.75,-4.7463,-4.7412,-4.738,-4.7337,-4.7291,-4.7276,-4.7195,-4.7167,-4.7121,-4.7088,-4.7021,-4.6972,-4.6913,-4.6872,-4.6826,-4.6818,-4.6816,-4.6834,-4.6856,-4.6841,-4.6773,-4.6818,-4.6817,-4.6816,-4.6816,-4.6815,-4.7595,-4.758,-4.7519,-4.7477,-4.7434,-4.7391,-4.7369,-4.7317,-4.7278,-4.7218,-4.7179,-4.7134,-4.7072,-4.6987,-4.6948,-4.691,-4.689,-4.6889,-4.6889,-4.6889,-4.6894,-4.6863,-4.6899,-4.6898,-4.6898,-4.6898,-4.6898,0,-4.7663,-4.7619,-4.7582,-4.7518,-4.7483,-4.7442,-4.7387,-4.7361,-4.7322,-4.7269,-4.7227,-4.7171,-4.7121,-4.7053,-4.6998,-4.6979,-4.6956,-4.6967,-4.6967,-4.6957,-4.6916,-4.6921,-4.6986,-4.6986,-4.6986,-4.6986,-4.6986,-4.6986,-4.7695,-4.7666,-4.7627,-4.7574,-4.7529,-4.7486,-4.7457,-4.7415,-4.7371,-4.7312,-4.727,-4.7226,-4.7165,-4.7103,-4.7054,-4.7034,-4.7016,-4.7033,-4.7007,-4.6969,-4.6961,-4.6954,-4.6958,-4.703,-4.703,-4.7051,-4.7051,-4.7051]}]]